TimeCST,TemperatureF,Dew PointF,Humidity,Sea Level PressureIn,VisibilityMPH,Wind Direction,Wind SpeedMPH,Gust SpeedMPH,PrecipitationIn,Events,Conditions,WindDirDegrees,DateUTC
12:15 AM,38.3,38.3,100,30.34,7.0,Calm,Calm,-,N/A,,Unknown,0,2012-11-18 06:15:00
12:35 AM,37.8,37.8,100,30.33,10.0,Calm,Calm,-,N/A,,Unknown,0,2012-11-18 06:35:00
1:15 AM,36.5,36.5,100,30.33,10.0,Calm,Calm,-,N/A,,Unknown,0,2012-11-18 07:15:00
1:35 AM,35.6,35.6,100,30.33,10.0,Calm,Calm,-,N/A,,Unknown,0,2012-11-18 07:35:00
2:15 AM,34.5,34.5,100,30.32,10.0,Calm,Calm,-,N/A,,Unknown,0,2012-11-18 08:15:00
2:35 AM,35.4,35.4,100,30.32,10.0,Calm,Calm,-,N/A,,Unknown,0,2012-11-18 08:35:00
2:55 AM,34.7,34.7,100,30.32,7.0,Calm,Calm,-,N/A,,Unknown,0,2012-11-18 08:55:00
3:15 AM,35.2,35.2,100,30.32,10.0,Calm,Calm,-,N/A,,Unknown,0,2012-11-18 09:15:00
3:35 AM,35.2,35.2,100,30.32,10.0,Calm,Calm,-,N/A,,Unknown,0,2012-11-18 09:35:00
3:55 AM,35.6,35.6,100,30.32,10.0,Calm,Calm,-,N/A,,Unknown,0,2012-11-18 09:55:00
4:35 AM,35.1,35.1,100,30.32,10.0,Calm,Calm,-,N/A,,Unknown,0,2012-11-18 10:35:00
4:55 AM,35.6,35.6,100,30.32,10.0,North,3.5,-,N/A,,Unknown,10,2012-11-18 10:55:00
5:15 AM,35.8,35.8,100,30.33,10.0,Calm,Calm,-,N/A,,Unknown,0,2012-11-18 11:15:00
5:35 AM,35.4,35.4,100,30.33,10.0,Calm,Calm,-,N/A,,Clear,0,2012-11-18 11:35:00
5:55 AM,34.9,34.9,100,30.33,10.0,Calm,Calm,-,N/A,,Clear,0,2012-11-18 11:55:00
6:15 AM,36.0,36.0,100,30.33,10.0,Calm,Calm,-,N/A,,Clear,0,2012-11-18 12:15:00
6:35 AM,34.2,34.2,100,30.34,10.0,Calm,Calm,-,N/A,,Unknown,0,2012-11-18 12:35:00
6:55 AM,35.4,35.4,100,30.35,10.0,Calm,Calm,-,N/A,,Unknown,0,2012-11-18 12:55:00
7:15 AM,35.8,35.8,100,30.35,10.0,North,3.5,-,N/A,,Clear,360,2012-11-18 13:15:00
7:35 AM,39.6,38.5,96,30.35,10.0,NE,3.5,-,N/A,,Unknown,40,2012-11-18 13:35:00
7:55 AM,42.1,38.7,88,30.35,10.0,NE,4.6,-,N/A,,Unknown,40,2012-11-18 13:55:00
8:15 AM,44.2,37.8,78,30.35,10.0,NE,4.6,-,N/A,,Unknown,50,2012-11-18 14:15:00
8:35 AM,46.6,37.9,72,30.35,10.0,NE,3.5,-,N/A,,Unknown,40,2012-11-18 14:35:00
9:15 AM,50.9,38.5,62,30.35,10.0,ENE,5.8,-,N/A,,Unknown,60,2012-11-18 15:15:00
9:35 AM,53.1,39.0,59,30.35,10.0,East,4.6,-,N/A,,Unknown,80,2012-11-18 15:35:00
9:55 AM,55.4,39.0,54,30.35,10.0,East,4.6,-,N/A,,Unknown,80,2012-11-18 15:55:00
10:15 AM,58.1,38.1,47,30.35,10.0,ENE,6.9,-,N/A,,Unknown,60,2012-11-18 16:15:00
10:35 AM,60.3,36.5,41,30.35,10.0,ENE,6.9,-,N/A,,Unknown,70,2012-11-18 16:35:00
11:15 AM,62.4,33.4,34,30.34,10.0,NE,5.8,-,N/A,,Clear,40,2012-11-18 17:15:00
11:35 AM,63.3,32.9,32,30.33,10.0,East,4.6,-,N/A,,Unknown,80,2012-11-18 17:35:00
11:55 AM,64.2,34.7,33,30.32,10.0,ENE,6.9,-,N/A,,Unknown,70,2012-11-18 17:55:00
12:15 PM,64.6,34.2,32,30.31,10.0,ENE,6.9,-,N/A,,Unknown,70,2012-11-18 18:15:00
12:35 PM,65.1,34.9,33,30.29,10.0,NNE,8.1,-,N/A,,Unknown,20,2012-11-18 18:35:00
12:55 PM,66.0,35.4,32,30.29,10.0,North,4.6,-,N/A,,Unknown,10,2012-11-18 18:55:00
1:15 PM,66.4,35.6,32,30.28,10.0,NNE,3.5,-,N/A,,Unknown,20,2012-11-18 19:15:00
1:35 PM,66.2,36.0,33,30.28,10.0,ESE,5.8,-,N/A,,Unknown,110,2012-11-18 19:35:00
1:55 PM,66.6,36.0,32,30.27,10.0,Calm,Calm,-,N/A,,Unknown,0,2012-11-18 19:55:00
2:15 PM,66.9,36.3,32,30.27,10.0,NNE,5.8,-,N/A,,Unknown,20,2012-11-18 20:15:00
2:35 PM,67.1,36.3,32,30.27,10.0,NNE,3.5,-,N/A,,Unknown,20,2012-11-18 20:35:00
2:55 PM,67.1,36.3,32,30.27,10.0,NE,4.6,-,N/A,,Unknown,50,2012-11-18 20:55:00
3:15 PM,66.7,36.5,33,30.26,10.0,NE,4.6,-,N/A,,Unknown,50,2012-11-18 21:15:00
3:35 PM,66.4,36.9,34,30.26,10.0,NNE,4.6,-,N/A,,Unknown,30,2012-11-18 21:35:00
3:55 PM,65.8,36.7,34,30.26,10.0,NNE,4.6,-,N/A,,Unknown,20,2012-11-18 21:55:00
4:15 PM,64.9,37.2,36,30.27,10.0,North,4.6,-,N/A,,Unknown,10,2012-11-18 22:15:00
4:35 PM,62.4,40.6,45,30.28,10.0,North,3.5,-,N/A,,Unknown,350,2012-11-18 22:35:00
5:15 PM,54.7,46.9,75,30.28,10.0,Calm,Calm,-,N/A,,Unknown,0,2012-11-18 23:15:00
5:35 PM,53.2,46.6,78,30.29,10.0,Calm,Calm,-,N/A,,Unknown,0,2012-11-18 23:35:00
5:55 PM,50.4,48.9,95,30.28,7.0,Calm,Calm,-,N/A,,Unknown,0,2012-11-18 23:55:00
6:35 PM,48.6,48.6,100,30.29,7.0,Calm,Calm,-,N/A,,Unknown,0,2012-11-19 00:35:00
6:55 PM,47.7,47.7,100,30.29,7.0,Calm,Calm,-,N/A,,Unknown,0,2012-11-19 00:55:00
7:15 PM,47.5,47.5,100,30.30,7.0,Calm,Calm,-,N/A,,Unknown,0,2012-11-19 01:15:00
7:35 PM,46.4,46.4,100,30.30,4.0,Calm,Calm,-,N/A,,Mist,0,2012-11-19 01:35:00
7:55 PM,45.9,45.9,100,30.30,7.0,Calm,Calm,-,N/A,,Unknown,0,2012-11-19 01:55:00
8:15 PM,44.1,44.1,100,30.31,7.0,Calm,Calm,-,N/A,,Unknown,0,2012-11-19 02:15:00
8:35 PM,44.2,44.2,100,30.31,10.0,Calm,Calm,-,N/A,,Unknown,0,2012-11-19 02:35:00
8:55 PM,44.4,44.4,100,30.31,7.0,Calm,Calm,-,N/A,,Unknown,0,2012-11-19 02:55:00
9:15 PM,42.4,42.4,100,30.32,7.0,North,3.5,-,N/A,,Unknown,360,2012-11-19 03:15:00
9:35 PM,42.8,42.8,100,30.32,5.0,Calm,Calm,-,N/A,,Mist,0,2012-11-19 03:35:00
9:55 PM,42.8,42.8,100,30.32,5.0,Calm,Calm,-,N/A,,Mist,0,2012-11-19 03:55:00
10:15 PM,42.4,42.4,100,30.31,7.0,Calm,Calm,-,N/A,,Unknown,0,2012-11-19 04:15:00
10:35 PM,42.3,42.3,100,30.31,10.0,Calm,Calm,-,N/A,,Unknown,0,2012-11-19 04:35:00
10:55 PM,42.1,42.1,100,30.31,7.0,Calm,Calm,-,N/A,,Unknown,0,2012-11-19 04:55:00
11:35 PM,41.4,41.4,100,30.31,5.0,Calm,Calm,-,N/A,,Mist,0,2012-11-19 05:35:00
11:55 PM,40.8,40.8,100,30.31,7.0,Calm,Calm,-,N/A,,Unknown,0,2012-11-19 05:55:00